Weather in Glebovo

Russia / Oryol Oblast     52°56′19″N   37°46′05″E
temp.,
°C
wind,
m/s
gust,
m/s
humid.,
%
clouds,
%
prec.,
mm/h
press.,
hPa
HPBL,
m
8 may, sat
sat800:00+8sse41271100 0.0 1014243
03:00+9sse51369100 0.0 1012395
06:00+8sse81590100 1.8 1011617
09:00+9sse91792100 3.9 1009721
12:00+9sse81692100 3.9 1008763
15:00+10sse81694100 7.6 1005981
18:00+11s81595100 5.4 1003877
21:00+10sw61193100 6.2 1004561
9 may, sun
sun900:00+8sw4997100 0.0 1004499
03:00+4wsw81396100 0.3 1006590
06:00+2wnw91696100 0.8 1009771
09:00+3nw91496100 1.1 1012911
12:00+6nw91279100 0.3 10141232
15:00+7nw8117173 0.6 10171464
18:00+8nw612705 0.1 10191551
21:00+5nw411825 0.1 1021248
10 may, mon
mon1000:00+4nw412805 0.0 1023260
03:00+4nnw513770 0.0 1025274
06:00+4n412740 0.0 1026298
09:00+9n711610 0.0 10261139
12:00+12nne810494 0.0 10261534
15:00+12nne811495 0.0 10261586
18:00+11nne812600 0.0 10261195
21:00+8nne6156639 0.0 1026472
11 may, tue
tue1100:00+8nne7166813 0.0 1026563
03:00+7ne7167490 0.0 1026523
06:00+6ne7158359 0.0 1026442
09:00+10ne8137482 0.0 1025566
12:00+11ene7128199 0.0 1025655
15:00+15e7107476 0.0 1025984
18:00+14ene5108256 0.1 1025738
21:00+13ne51292100 1.1 1024581
12 may, wed
wed1200:00+11nw1195100 9.1 102421
03:00+10sse2498100 11.4 1023232
06:00+9s2297100 0.9 1022120
09:00+8sw3696100 9.0 1022313
12:00+13s23690 0.8 1023818
15:00+15ese4661100 0.8 10221671
18:00+15ene466961 0.1 1022645
21:00+11ene3889100 0.1 1021162